User: anonymous   Login
Location: East Guldeford
(50.9500°N, 0.7500°E)
Time: 21:27:58
(UTC+00:00)
Language:

Cosmos 489 Rocket - Orbit

View from above orbital plane
View from above orbital plane
View from above satellite
View from above satellite

Ground track
Ground track

The orbit data is extracted from the following two-line orbital elements,

1 06020U 72035B   21212.60670455  .00000006  00000-0  28487-4 0  9995
2 06020  74.0214 278.8901 0021887 273.3092 237.9370 13.78847975476406
Epoch (UTC): 31 July 2021 14:33:39
Eccentricity: 0.0021887
inclination: 74.0214°
perigee height: 952 km
apogee height: 984 km
right ascension of ascending node: 278.8901°
argument of perigee: 273.3092°
revolutions per day: 13.78847975
mean anomaly at epoch: 237.9370°
orbit number at epoch: 47640

The dashed part of the orbit path shows where the satellite is in the earth's shadow,  

DLR